Total_Precipitation_Accumulation
2.52 2.59 2.58 2.61 2.49 2.48 2.45 2.15 1.86 1.95 2.04 1.99 1.75 1.70 1.77 1.75 1.81 2.01 2.24 2.16 2.05 2.19 2.49 2.70 2.85 2.87 2.81 2.77 2.76 2.77 2.73 2.72 2.70 2.55 2.28 2.07 1.93 1.87 1.87 1.93 1.95 1.90 1.83
2.83 2.85 2.85 2.79 2.68 2.73 2.68 2.42 2.23 2.36 2.33 2.26 2.01 1.90 1.89 1.92 1.91 2.03 2.20 2.19 1.93 1.86 2.11 2.51 2.78 2.97 3.06 3.07 2.92 2.77 2.76 2.75 2.78 2.62 2.41 2.21 2.06 1.96 1.89 1.90 1.95 1.93 1.87
3.06 3.12 3.18 3.03 2.80 2.76 2.80 2.74 2.62 2.59 2.51 2.31 2.18 2.16 2.12 1.97 1.90 2.09 2.20 2.21 2.08 1.98 2.07 2.22 2.42 2.72 3.13 3.31 3.20 3.04 2.94 2.92 2.84 2.69 2.57 2.39 2.22 2.07 1.96 1.92 1.91 1.89 1.86
3.05 3.29 3.34 3.12 2.88 2.77 2.91 3.03 2.91 2.83 2.79 2.71 2.45 2.21 2.14 2.11 2.00 2.03 2.04 2.11 2.24 2.15 2.20 2.14 2.20 2.41 2.74 3.04 3.26 3.30 3.19 3.10 3.00 2.86 2.75 2.58 2.45 2.24 2.08 2.02 1.96 1.89 1.86
3.17 3.37 3.46 3.42 3.12 3.05 3.14 3.03 3.22 3.07 3.04 2.85 2.49 2.30 2.07 1.92 1.94 1.92 1.98 1.99 2.03 2.06 2.10 2.11 2.17 2.26 2.47 2.74 2.96 3.15 3.22 3.20 3.01 2.79 2.76 2.76 2.59 2.37 2.23 2.15 2.05 1.95 1.88
3.30 3.48 3.51 3.57 3.43 3.43 3.57 3.50 3.49 3.30 3.05 2.87 2.47 2.27 2.03 1.78 1.74 1.77 1.76 1.77 1.76 1.74 1.84 1.91 2.06 2.07 2.21 2.39 2.71 3.00 3.35 3.45 3.25 3.01 2.89 2.81 2.63 2.37 2.21 2.19 2.15 2.08 2.00
3.86 4.02 3.88 3.82 3.61 3.55 3.60 3.56 3.42 3.32 3.16 3.09 2.96 2.59 2.14 1.74 1.60 1.53 1.59 1.65 1.60 1.57 1.68 1.82 1.86 1.88 1.95 2.01 2.17 2.51 3.00 3.37 3.36 3.21 3.10 2.96 2.75 2.55 2.37 2.31 2.28 2.24 2.16
4.49 4.37 4.27 4.02 3.80 3.63 3.45 3.37 3.29 3.18 2.98 2.98 2.99 2.89 2.50 2.15 1.74 1.39 1.52 1.58 1.57 1.64 1.65 1.60 1.61 1.62 1.60 1.72 1.86 2.14 2.49 2.74 3.04 3.27 3.25 3.04 2.86 2.73 2.62 2.52 2.47 2.43 2.38
4.37 4.20 4.09 3.91 3.78 3.60 3.40 3.34 3.29 3.21 3.07 3.04 3.05 3.14 2.92 2.43 1.96 1.63 1.50 1.51 1.58 1.66 1.66 1.60 1.53 1.52 1.54 1.63 1.69 1.90 2.17 2.26 2.48 2.79 3.02 2.95 2.86 2.88 2.84 2.82 2.77 2.73 2.68
4.09 3.92 3.91 3.81 3.64 3.45 3.30 3.06 3.00 3.09 3.20 3.04 2.94 2.74 2.58 2.35 2.23 1.97 1.73 1.60 1.56 1.58 1.59 1.54 1.46 1.51 1.57 1.70 1.84 1.88 1.94 1.94 2.04 2.20 2.36 2.50 2.58 2.68 2.79 2.76 2.81 2.91 2.94
3.80 3.56 3.51 3.42 3.22 3.04 2.91 2.76 2.69 2.76 2.87 2.86 2.82 2.69 2.58 2.42 2.21 2.09 1.92 1.75 1.69 1.59 1.53 1.53 1.52 1.55 1.60 1.65 1.71 1.76 1.82 1.78 1.85 1.89 1.94 2.07 2.24 2.39 2.55 2.66 2.78 2.94 3.12
3.59 3.29 2.99 2.92 2.86 2.66 2.41 2.34 2.35 2.34 2.43 2.51 2.59 2.52 2.37 2.29 2.19 2.17 2.06 1.91 1.84 1.71 1.63 1.60 1.53 1.50 1.56 1.53 1.46 1.61 1.57 1.56 1.62 1.70 1.74 1.79 1.87 1.97 2.13 2.32 2.60 2.82 2.98
3.12 2.85 2.60 2.48 2.41 2.33 2.18 2.09 2.08 1.95 1.95 2.02 2.05 2.17 2.18 2.08 1.96 2.02 2.14 2.07 1.90 1.73 1.64 1.56 1.39 1.34 1.37 1.44 1.52 1.52 1.39 1.34 1.30 1.31 1.38 1.53 1.65 1.72 1.75 1.87 2.07 2.35 2.57
2.61 2.37 2.26 2.10 1.89 1.73 1.66 1.69 1.73 1.71 1.70 1.71 1.69 1.86 1.96 1.94 1.91 1.90 1.95 2.14 2.11 1.86 1.70 1.54 1.38 1.31 1.34 1.36 1.45 1.33 1.27 1.23 1.16 1.18 1.20 1.27 1.39 1.56 1.61 1.57 1.57 1.66 1.84
2.00 1.89 1.82 1.80 1.69 1.56 1.47 1.44 1.48 1.56 1.58 1.53 1.52 1.61 1.68 1.65 1.67 1.72 1.79 1.95 2.14 2.04 1.82 1.59 1.55 1.48 1.46 1.44 1.51 1.31 1.31 1.25 1.21 1.25 1.27 1.29 1.35 1.51 1.58 1.51 1.41 1.33 1.33
1.69 1.56 1.49 1.48 1.49 1.45 1.43 1.47 1.46 1.49 1.54 1.45 1.39 1.38 1.38 1.34 1.40 1.44 1.55 1.67 1.84 1.97 1.86 1.52 1.46 1.51 1.52 1.41 1.56 1.40 1.35 1.30 1.25 1.44 1.59 1.53 1.50 1.67 1.80 1.77 1.57 1.43 1.39
1.48 1.40 1.32 1.27 1.26 1.29 1.30 1.34 1.32 1.27 1.22 1.19 1.15 1.14 1.16 1.22 1.30 1.29 1.33 1.46 1.68 1.87 1.92 1.57 1.44 1.51 1.65 1.60 1.61 1.53 1.42 1.38 1.41 1.78 1.96 2.15 1.91 1.81 1.91 1.89 1.79 1.58 1.44
1.31 1.27 1.17 1.09 1.05 1.04 1.05 1.06 1.09 1.10 1.10 1.04 1.05 1.10 1.10 1.14 1.20 1.25 1.31 1.37 1.52 1.76 1.93 1.83 1.60 1.61 1.67 1.66 1.71 1.67 1.44 1.29 1.35 1.80 2.08 2.38 2.33 2.09 2.09 1.93 1.78 1.60 1.48
1.16 1.10 1.07 1.04 0.97 0.96 0.93 0.90 0.93 1.00 1.01 0.96 0.99 1.04 1.10 1.23 1.23 1.24 1.31 1.34 1.45 1.59 1.88 1.94 1.74 1.71 1.77 1.80 1.92 1.78 1.59 1.55 1.28 1.53 1.95 2.28 2.44 2.47 2.53 2.38 2.07 1.71 1.49
1.11 1.08 1.06 0.98 0.93 0.89 0.88 0.87 0.88 0.92 0.94 0.93 0.98 1.03 1.09 1.22 1.29 1.34 1.34 1.38 1.43 1.57 1.76 1.93 1.87 1.83 1.91 1.96 2.00 1.94 1.79 1.64 1.46 1.37 1.80 2.27 2.60 2.63 2.79 2.87 2.56 2.09 1.69
1.05 1.04 1.03 0.96 0.91 0.86 0.82 0.82 0.83 0.86 0.95 0.96 0.95 0.95 0.98 1.10 1.20 1.19 1.11 1.16 1.33 1.57 1.65 1.84 1.87 1.86 1.90 2.00 1.95 1.74 1.67 1.61 1.45 1.35 1.56 1.94 2.63 2.94 2.98 3.02 2.88 2.37 1.89
1.06 1.03 1.00 0.95 0.89 0.74 0.77 0.79 0.80 0.85 0.91 0.92 0.92 0.91 0.85 0.84 0.83 0.85 0.90 0.96 1.11 1.40 1.74 1.94 1.90 1.84 1.75 1.73 1.78 1.72 1.72 1.72 1.65 1.35 1.32 1.58 2.15 2.94 3.18 3.12 3.00 2.38 1.82
1.04 0.97 0.91 0.92 0.88 0.79 0.74 0.69 0.74 0.83 0.90 0.95 0.99 0.97 0.76 0.65 0.75 0.82 0.87 0.92 1.04 1.23 1.55 1.91 1.99 1.76 1.72 1.69 1.77 1.75 1.81 1.86 1.73 1.40 1.45 1.68 2.02 2.70 2.87 2.85 2.74 2.09 1.65
1.01 1.01 0.97 0.96 0.95 0.80 0.72 0.66 0.71 0.77 0.88 0.91 0.92 0.95 0.95 0.87 0.82 0.91 0.97 1.04 1.15 1.28 1.40 1.52 1.84 1.65 1.45 1.48 1.60 1.66 1.77 1.80 1.70 1.50 1.54 1.81 2.04 2.48 2.46 2.54 2.42 1.92 1.54
0.97 0.94 0.94 0.95 1.00 0.91 0.77 0.70 0.66 0.73 0.83 0.84 0.81 0.81 0.81 0.83 0.91 1.08 1.19 1.38 1.48 1.58 1.50 1.65 1.83 1.77 1.63 1.58 1.47 1.57 1.83 1.87 1.78 1.62 1.62 1.86 1.99 2.08 2.19 2.27 2.02 1.80 1.51
0.91 0.87 0.86 0.90 0.93 0.85 0.71 0.60 0.57 0.64 0.78 0.82 0.85 0.83 0.76 0.71 0.83 1.01 1.25 1.56 1.70 1.76 1.62 1.73 2.00 2.04 1.87 1.87 1.85 1.76 1.91 1.96 1.89 1.82 1.60 1.69 1.86 1.85 2.05 1.99 1.81 1.68 1.59